Weather in Buryn

Ukraine / Sumi District     51˚11′44″N   33˚49′35″E
temp.,
°C
wind,
m/s
gust,
m/s
humid.,
%
clouds,
%
prec.,
mm/h
press.,
hPa
HPBL,
m
29 november, sun
sun2923:00+3˚se2393100 0.6 1018135
02:00+3˚sse2589100 1.1 1018243
05:00+3˚se3491100 0.7 1018199
08:00+3˚sw1298100 3.4 1018125
11:00+2˚w1297100 5.1 1019157
14:00+2˚sw0097100 7.8 102092
17:00+2˚ssw1298100 0.6 1021117
20:00+3˚ese0097100 0.6 102258
30 november, mon
mon3023:00+3˚s1197100 0.1 102378
02:00+2˚w2497100 1.2 1023277
05:00+2˚nw2497100 2.7 1023206
08:00+1˚nw3497100 3.3 1024201
11:00+1˚nnw3597100 0.4 1024211
14:00nnw4799100 3.6 1025216
17:00+1˚nnw4798100 1.9 1025219
20:00+1˚n4698100 3.6 1025210
1 december, tue
tue123:00+1˚n3599100 2.3 1026163
02:00+2˚n1199100 3.0 102676
05:00+2˚se1397100 0.3 1026195
08:00+2˚e2293100 0.3 102875
11:00+3˚ese3587100 0.0 1028324
14:00+3˚e3582100 0.0 1028406
17:00+2˚e4784100 0.0 1028477
20:00+1˚ese5885100 0.0 1029514
2 december, wed
wed223:00e4886100 0.0 1030333
02:00−1˚e488398 0.0 1030347
05:00−1˚e4881100 0.0 1029451
08:00−2˚ese597898 0.0 1030527
11:00−1˚ese5971100 0.0 1030576
14:00ese5871100 0.0 1029605
17:00−2˚ese598399 0.0 1029600
20:00−2˚ese5986100 0.1 1029600
3 december, thu
thu323:00−2˚ese5988100 0.1 1029521
02:00−2˚ese588999 0.3 1029507
05:00−2˚ese5894100 0.5 1029493
08:00−2˚ese599199 0.8 1029465
11:00−1˚ese589297 0.3 1029503
14:00−1˚ese589199 0.6 1028514
17:00−2˚ese489597 0.3 1028367
20:00−2˚se489598 0.8 1028417